DELTA 1 DEB, 21972

Orbit data source: Space-Track

DELTA 1 DEB, 21972 is space debris in SSO originally from a launch on Thu, 12 Jun 1975 UTC launched from the Air Force Western Test Range (AFWTR). Debris objects in space refer to the collection of defunct objects orbiting the Earth. Examples of debris include non-operational satellites, rocket bodies, and fragments generated from explosions, collisions, or faulty payload assembly.

Loading next visibility...
Identifier
21972, 1975-052JW
Orbit
SSO
Country
Flag of USUS
Related business
Manufacturer
Unknown
Mission
Spacecraft
Bus & Motor
Unknown
Mass
Unknown
Launch date (UTC)
1975-06-12 (51 years ago)
Launch vehicle
Unknown
Launch site
Air Force Western Test Range (AFWTR)
Object type
Payload
Rocket body
Debris
Shape & HBR
Unknown shape, 0.1 m
Radar Cross Section
Small (<0.1 m²)

Expand to show TLE details & history
Last TLE update: 1 day ago

TLE from 1 day ago
0 DELTA 1 DEB
1 21972U 75052JW  26034.09507442  .00000360  00000-0  11402-2 0  9995
2 21972  99.6147 256.8388 0335968  35.6542 113.8373 12.92097910597083
Epoch: 2026-02-03T02:16Z
TLE epoch observation values (Epoch: 2026-02-03T02:16:54.429Z)
Latitude
26.67207°
Longitude
-85.81144°
Altitude
1,407.565 km
Speed
7.107 km/s
True Right ascension
05h 26m 47s
True Declination
26° 32' 45"
Sunlit
Object was in full shadow at epoch
Visualization orbit readout
Latitude
Unknown
Longitude
Unknown
Altitude
Unknown
Speed
Unknown
Apparent Right ascension
Unknown
Apparent Declination
Unknown
Sunlit
N/A
Visualization observer readout
Local Sidereal Time
05:02:27
Azimuth
Unknown
Elevation
Unknown
Doppler factor
Unknown
Orbital elements
Apogee altitude
1,548.224 km
Perigee altitude
1,032.935 km
Semi-major axis
7,668.716 km
Eccentricity
0.0336
Inclination
99.6147°
RAAN
256.8388°
Arg. of periapsis
35.6542°
True anomaly
117.29789°
Mean anomaly
113.8373°
Eccentric anomaly
115.57367°
Mean motion
3.23191 °/min
Orbital period
111.39 mins
BSTAR
0.0011402
Loading maneuver chart data...
Computing Atmospheric mass density...
Loading historical data...
Loading historical data...
Loading historical data...
Loading historical data...
Loading historical data...
Loading historical data...
Loading historical data...

Documentation

Showing up to 5 results
|